Theta_e
324 324 324 324 323 323 323 323 324 325 323 321 321 322 321 322 320 310 304 318 324 331 326 316 313 313 308 305 307 308 300 297 299 299 301 303 302 305 308 308 312 315 313 316 322
323 324 324 324 325 324 323 323 324 324 324 322 320 321 321 321 311 307 317 327 328 329 313 312 308 309 301 302 303 301 297 300 303 302 300 302 302 303 303 306 309 313 317 320 320
322 323 324 325 324 324 324 323 323 323 323 322 321 320 320 316 302 301 325 327 327 326 316 313 312 306 298 299 300 299 294 300 302 304 305 303 303 304 303 301 306 310 315 318 317
321 322 323 323 324 324 323 323 322 322 322 322 321 320 319 311 285 314 324 326 328 322 315 310 309 300 296 295 299 296 300 299 301 307 305 303 306 302 302 304 307 310 319 318 318
321 320 321 322 322 323 324 323 322 322 322 321 321 320 311 300 298 317 321 320 320 318 311 308 304 301 295 296 298 297 297 300 302 304 304 306 304 304 304 305 312 319 319 318 319
319 320 319 320 321 322 323 323 322 322 321 320 319 319 305 289 309 313 315 317 319 316 310 310 307 307 302 301 297 301 301 301 303 301 302 302 302 304 305 307 307 318 317 318 318
318 318 318 319 321 322 322 322 323 321 321 319 318 313 303 297 311 315 315 313 317 317 311 313 313 307 306 300 305 302 297 299 298 299 300 303 299 300 304 307 306 312 315 317 317
317 317 318 318 319 321 321 322 321 321 321 319 318 307 296 308 309 309 313 310 315 319 317 316 315 309 305 306 301 297 296 290 296 298 300 300 291 297 303 303 304 303 303 306 310
315 316 317 317 318 319 320 321 320 321 320 319 306 300 293 309 304 308 310 307 311 315 315 317 312 303 304 295 291 291 287 290 294 298 296 298 293 299 301 301 301 300 300 300 301
314 315 315 317 317 318 318 319 319 318 316 310 307 295 296 296 304 308 307 308 308 310 306 307 303 296 295 291 282 285 287 288 289 292 294 293 294 300 301 299 300 300 300 300 301
314 314 315 315 316 317 314 311 304 303 304 297 296 295 297 302 306 304 306 305 306 303 290 299 294 289 294 295 290 289 288 286 289 293 291 290 291 294 297 298 298 300 300 300 301
314 314 314 314 315 316 311 303 305 303 297 303 300 299 303 304 297 301 305 298 298 293 295 291 288 293 297 298 293 290 288 287 290 293 290 289 289 292 295 294 296 297 298 300 301
313 312 313 313 313 309 304 304 311 308 294 299 301 298 301 301 296 297 301 298 294 292 292 284 286 295 295 293 292 292 288 287 287 291 290 286 283 287 291 291 294 296 299 299 300
311 311 312 312 305 301 299 308 310 308 288 290 296 299 301 301 293 302 302 297 293 290 292 290 294 292 291 290 293 287 293 293 291 288 280 285 275 284 288 289 290 291 292 295 295
311 311 311 311 301 297 301 307 308 303 274 290 294 304 300 295 295 296 302 297 290 290 291 285 288 289 288 289 294 289 294 292 290 285 283 280 279 283 286 287 290 292 290 290 291
310 310 311 306 299 300 307 306 300 282 275 286 294 293 293 295 295 298 296 298 295 290 289 287 290 292 291 293 295 293 289 287 285 283 274 281 280 278 284 287 288 289 290 291 291
309 309 307 305 297 304 306 298 281 275 286 284 287 292 291 290 292 294 292 290 284 279 278 283 287 290 292 289 292 290 285 273 273 275 274 279 280 281 286 289 288 288 290 291 291
308 307 306 305 305 305 300 287 275 278 278 287 289 291 287 290 291 292 290 287 289 284 280 278 274 286 291 290 288 289 287 278 271 272 274 280 277 281 288 289 290 290 291 292 293
308 302 299 303 305 304 292 279 279 278 285 285 288 285 285 289 289 290 289 288 290 288 281 279 279 287 289 291 292 287 285 288 279 269 272 277 280 284 288 287 288 289 292 293 294
299 296 296 303 304 299 286 282 277 286 286 287 282 285 283 285 286 287 287 291 290 291 288 284 279 285 288 291 290 289 291 282 280 268 267 274 276 278 282 286 288 287 291 292 292
296 289 296 301 300 289 281 282 285 288 288 286 283 283 282 286 286 286 287 288 292 289 291 286 283 281 287 284 285 285 284 285 285 280 273 270 274 281 284 285 287 288 291 291 291
292 282 295 299 284 284 282 280 287 287 289 289 287 286 283 284 286 286 286 288 292 291 286 288 284 278 281 286 288 290 286 288 280 275 277 277 278 285 285 286 286 289 291 290 290
286 285 296 296 279 280 283 279 284 283 287 287 287 287 287 285 283 286 286 291 291 290 288 289 284 277 280 283 284 284 287 288 284 281 278 274 277 286 285 287 288 286 289 290 289
285 280 287 290 287 282 280 278 275 288 286 287 288 289 287 286 287 284 286 288 291 292 295 293 284 282 278 279 283 282 286 287 286 279 280 280 282 282 285 285 286 286 288 288 289
283 280 280 280 281 282 282 281 278 276 284 286 283 286 285 283 284 284 287 286 288 293 293 290 283 282 285 281 283 283 285 286 284 285 280 283 283 286 286 286 286 287 287 288 289
282 281 281 275 282 280 281 274 279 279 282 281 280 283 284 284 285 283 286 286 285 287 290 290 281 285 277 284 283 282 284 286 286 286 286 286 285 291 290 289 287 288 289 288 288
286 285 282 283 281 280 279 279 279 282 283 285 284 282 282 284 287 290 290 290 288 287 287 287 283 281 278 283 281 278 282 283 285 287 286 282 287 292 289 288 290 292 292 291 290
Wind_Speed
13 13 12 11 10 10 9 7 6 5 5 2 3 7 10 12 11 4 4 2 6 11 11 7 5 7 3 4 4 2 5 3 3 2 2 2 3 1 1 6 3 2 3 2 10
11 14 13 13 11 10 9 7 7 5 6 3 1 4 9 11 4 5 3 7 8 8 5 7 6 8 4 3 3 5 4 8 3 2 1 1 2 0 3 3 1 1 2 5 11
8 9 15 14 12 11 9 8 7 6 5 4 2 3 8 8 4 4 4 7 8 5 1 1 3 2 1 2 1 3 5 3 2 1 1 1 2 2 7 1 5 6 5 7 6
11 8 9 12 12 11 11 9 7 6 5 4 2 5 6 3 5 2 4 7 7 2 1 1 2 1 1 3 1 3 5 2 1 3 2 1 1 1 2 3 3 7 10 8 10
11 10 9 12 13 12 12 11 8 6 4 3 3 2 1 1 7 2 6 7 1 1 0 2 2 2 3 2 1 4 3 2 2 3 2 1 2 2 3 5 5 7 8 11 11
10 10 9 8 10 12 12 11 10 8 6 3 1 0 2 3 1 3 4 4 4 3 2 1 1 1 2 2 2 0 1 3 2 2 2 2 3 1 3 3 3 7 9 9 10
11 10 9 8 8 15 12 12 11 9 7 6 3 1 1 9 2 6 4 1 3 2 3 3 3 1 1 0 3 1 1 5 3 2 4 5 5 10 7 4 5 7 8 8 10
11 10 9 8 6 7 13 12 11 10 9 7 4 2 6 2 3 3 5 3 2 2 1 3 3 0 1 3 5 1 2 2 4 3 4 7 9 5 8 5 10 8 8 8 10
13 11 10 9 6 3 5 9 11 11 11 9 4 4 8 6 2 4 4 3 1 1 2 1 3 1 2 4 3 4 3 5 6 6 1 5 6 5 3 6 9 8 7 8 9
15 13 11 10 9 8 7 4 8 9 8 3 2 3 3 3 2 2 2 1 1 1 3 3 4 1 2 3 7 7 4 3 4 1 2 4 8 10 5 2 9 8 9 8 9
15 15 13 11 10 11 9 4 5 3 5 7 8 4 2 2 1 1 3 3 1 3 4 1 3 9 11 4 1 4 4 4 3 1 2 5 5 11 8 5 9 12 12 12 13
16 15 15 12 11 12 6 4 2 3 3 6 2 3 1 1 2 0 3 4 2 3 4 4 9 5 4 3 2 2 2 4 4 3 1 6 10 11 15 8 11 14 12 15 11
20 20 16 15 11 4 5 5 5 2 1 5 9 6 3 4 3 7 8 5 2 4 5 6 4 6 7 4 6 6 5 3 3 4 1 5 8 7 10 4 8 13 18 13 16
19 20 19 17 6 4 4 7 4 1 3 5 8 7 6 5 5 6 6 6 3 8 4 7 4 4 4 6 7 5 7 5 2 3 5 1 8 7 10 13 7 14 10 13 10
20 19 22 19 7 6 6 7 6 5 10 8 8 4 10 10 8 4 4 4 7 7 7 8 2 5 5 4 9 5 5 6 4 2 3 2 2 9 3 9 19 12 7 9 11
19 22 21 13 2 4 11 9 5 6 9 9 8 11 11 14 4 4 4 3 3 4 1 6 2 5 7 3 10 6 7 7 5 2 3 8 8 5 6 9 7 5 6 9 8
21 17 19 7 11 6 11 6 7 16 3 6 8 12 18 10 13 10 13 12 8 6 6 1 6 3 3 4 3 2 7 3 4 1 8 3 5 7 10 15 9 9 9 9 1
23 25 12 6 6 10 8 8 12 15 7 3 6 10 16 10 14 10 14 12 13 2 4 8 6 11 7 7 6 11 9 7 9 5 4 1 9 9 11 9 10 9 7 2 4
22 10 9 6 6 6 10 17 13 11 21 9 9 12 10 11 9 12 16 15 15 14 8 7 7 3 5 6 10 5 12 7 5 2 3 6 8 10 11 12 8 8 4 6 5
11 8 11 11 5 7 10 18 6 9 9 7 15 10 11 12 14 19 14 13 16 20 3 5 2 3 8 3 2 7 10 3 2 1 5 6 6 9 7 7 7 7 10 6 1
8 7 6 14 3 5 10 7 6 5 3 22 12 9 7 13 13 13 10 6 23 17 19 4 5 2 6 8 13 5 5 4 6 6 6 3 8 9 11 7 7 7 8 7 8
8 5 5 14 11 2 6 9 5 8 8 5 5 4 9 13 14 16 18 11 11 14 20 9 4 6 9 2 3 13 7 14 7 5 4 1 13 4 8 7 7 10 9 6 7
9 3 4 12 10 6 1 2 4 3 14 7 5 7 4 12 9 11 8 10 7 16 15 14 7 4 1 2 2 10 10 9 4 3 7 5 9 3 4 7 7 9 7 9 8
5 6 4 7 2 10 6 1 3 4 5 3 4 7 2 11 11 13 15 4 13 16 13 17 5 13 15 6 7 10 19 16 17 5 11 17 20 3 5 8 6 4 7 8 7
2 4 5 12 15 11 8 9 5 3 1 7 1 5 9 8 15 12 12 4 7 13 16 9 9 10 18 3 4 7 17 22 18 26 13 25 22 20 11 9 5 5 5 5 7
6 6 3 3 10 12 12 5 11 5 7 4 8 13 12 8 7 20 16 9 10 7 15 9 6 11 6 13 9 5 11 19 25 28 18 25 27 13 7 7 7 9 11 10 8
1 2 7 8 10 13 13 16 18 11 6 8 13 12 13 19 17 14 10 14 9 14 19 14 8 6 15 15 4 10 22 21 19 21 21 24 30 19 9 9 17 22 16 13 11
Wind_Direction
219 221 218 212 214 217 221 224 223 236 221 195 19 345 334 339 331 333 270 295 310 331 329 313 3 342 351 20 7 105 69 177 223 197 261 6 145 131 53 112 65 13 159 279 129
234 224 217 219 210 205 212 220 224 227 231 212 349 345 333 342 336 276 296 322 323 336 3 17 347 345 3 11 13 87 130 210 209 194 204 22 112 312 123 115 72 34 360 105 125
217 232 221 213 210 205 204 204 214 217 235 221 230 314 342 340 330 263 348 332 335 335 229 292 292 301 351 350 175 154 183 213 257 287 241 69 95 286 124 268 211 198 170 146 145
211 213 221 218 209 203 205 198 205 215 220 235 249 311 343 315 242 306 313 323 328 354 237 328 314 311 158 203 200 153 234 219 298 323 344 195 348 88 141 216 345 206 159 162 173
218 213 201 207 216 204 199 193 192 207 219 249 275 294 46 276 258 310 319 333 1 30 270 175 183 174 205 222 296 167 240 166 346 327 309 27 265 272 248 213 41 117 150 179 192
214 216 215 205 203 208 203 194 187 187 193 212 234 87 113 216 329 333 322 345 16 36 0 161 234 323 278 267 183 63 29 337 263 202 266 200 279 56 266 205 164 159 193 201 204
207 212 207 207 211 209 196 197 184 178 179 182 172 88 326 234 19 345 311 13 354 18 49 7 330 341 335 225 342 80 6 338 250 221 234 149 275 233 234 156 158 202 220 226 235
207 206 201 199 209 220 198 190 182 171 168 167 135 84 250 281 320 286 299 327 346 323 64 320 312 49 13 319 18 132 69 140 290 159 258 135 259 258 226 221 249 198 247 250 245
203 201 194 195 188 186 208 195 177 169 160 143 82 101 268 320 241 236 210 291 347 13 358 348 47 71 27 95 26 350 217 197 309 202 203 184 264 277 225 198 249 259 230 230 258
205 195 190 190 178 158 95 157 182 164 134 62 66 48 271 255 235 179 113 75 104 105 65 59 63 98 65 125 207 210 208 223 214 340 110 268 265 279 292 225 246 266 271 262 247
205 202 191 194 191 165 120 130 125 206 195 195 187 187 126 280 320 99 119 92 72 64 147 93 139 208 206 176 116 149 163 204 242 233 349 254 264 277 272 240 249 258 262 263 257
203 196 190 187 195 179 142 195 174 136 184 234 160 279 126 181 77 192 118 137 172 168 126 67 230 205 136 173 168 100 146 249 279 300 344 295 283 273 275 240 232 243 250 252 260
209 201 193 186 194 171 173 175 131 89 144 195 181 197 174 130 230 207 141 137 132 151 197 164 215 178 167 176 188 226 219 212 222 335 309 324 278 253 277 251 257 253 245 249 246
214 205 195 186 175 152 198 148 111 106 279 189 192 213 168 131 258 185 171 138 186 193 153 253 240 146 194 207 157 230 206 215 174 55 242 35 285 297 271 288 238 257 238 247 237
210 210 200 180 135 183 163 134 107 63 230 176 169 177 159 170 140 240 187 56 165 172 144 240 230 182 188 207 175 231 155 182 156 193 343 223 273 264 295 284 272 263 238 244 226
210 206 206 198 80 176 145 139 81 257 211 162 142 173 157 197 160 103 137 47 153 155 197 228 313 187 201 178 174 144 79 48 50 74 292 200 182 248 217 220 278 294 291 281 262
186 209 205 189 200 166 150 122 193 215 123 173 175 173 183 173 186 171 176 185 166 136 217 24 238 267 192 118 108 125 105 19 349 301 236 326 203 249 258 257 244 290 309 319 88
199 191 211 206 151 165 168 188 214 211 199 248 178 173 189 159 205 183 171 198 226 147 118 165 294 174 192 196 175 190 166 165 203 202 271 60 236 253 246 284 262 258 287 310 151
195 189 180 194 188 174 183 210 209 194 188 169 178 177 186 191 170 186 201 209 198 199 187 167 254 157 169 167 153 182 216 162 100 46 39 224 281 293 280 269 271 269 196 204 178
187 177 192 142 147 191 210 209 209 193 199 146 196 180 189 182 173 188 182 209 214 195 206 219 278 199 193 126 244 177 143 162 96 230 266 254 256 237 299 263 246 244 208 186 214
168 189 183 175 159 220 221 205 202 221 137 192 197 175 176 183 184 189 200 219 200 189 186 183 179 294 117 209 184 145 176 181 152 179 204 257 253 220 241 248 243 241 228 190 186
164 186 176 150 199 197 212 160 160 228 238 245 176 149 184 167 190 205 211 220 191 153 193 185 178 186 202 248 237 218 212 195 191 216 237 250 254 220 233 247 214 234 219 188 192
161 123 191 162 201 191 39 146 179 123 202 191 220 224 182 179 189 195 206 205 149 168 183 178 205 181 142 330 327 209 207 213 110 101 209 154 258 350 305 278 258 256 182 185 194
143 137 165 183 177 184 142 183 135 151 111 113 256 244 203 216 206 193 223 203 180 193 191 176 189 214 220 205 141 198 205 203 205 206 226 232 253 286 312 289 322 250 195 177 196
138 170 197 173 187 168 146 155 160 123 194 157 209 263 215 226 209 223 215 194 196 193 194 154 222 214 234 114 205 199 205 206 206 225 204 245 247 250 227 249 240 240 244 257 245
124 140 64 101 131 168 192 200 161 166 164 202 215 247 265 274 242 218 217 198 198 191 195 189 232 210 251 235 215 216 217 211 216 230 230 255 259 244 234 242 251 238 253 253 241
153 71 114 144 155 182 199 203 201 183 222 206 204 221 238 247 241 281 319 279 226 192 199 201 200 188 241 218 166 232 218 214 223 226 209 239 240 262 249 230 234 243 250 258 249